Content
SEND FEEDBACK

Daily
Averages
Monthly
Summary
Russia

LENINKA, RUSSIA


Home > Europe > Russia
Elevation: 200 feet     Latitude: 64 46N     Longitude: 177 34E

WEATHER
 
SELECT A DAY
Number of Records: 123,236;   Date Range: 7/1/96 - 9/30/14
 
SHARE

PRINT THIS DATA

[ ← Previous Day ]
WEATHER ALMANAC - JANUARY 23, 2013
[ Next Day → ]
[ °C ]   °F
Weather ElementAverageHighLow
Temperature11.4 °F19.4 °F (12:00 am)4 °F (12:00 pm)
Dewpoint7 °F17.6 °F (12:00 am)-0.4 °F (7:00 pm)
Humidity81.8 %93 % (12:00 am)67 % (9:00 pm)
Barometer29.92 in29.98 in (12:00 am)29.86 in (3:30 pm)
Wind Speed16.8 mph40.3 mph (6:00 am)
Wind Gust40.3 mph (1:30 pm)
Weather ElementAverage
Visibility1.8 mi
Wind DirectionENE (81.9 °)

Weather ElementTotal
Precipitation---
Heating Degree Days53.3 (Base 65)
Averaged from 36 records on January 23, 2013
WEATHER CONDITIONS BREAKOUT
WIND DIRECTION BREAKOUT
WEATHER BY HOUR - JANUARY 23, 2013
[ °C ]   °F
Local TimeTemperatureDewpointHumidityBarometerVisibilityWind DirectionWind SpeedGust SpeedPrecipitationEventsConditions
12:00 AM19.4 °F17.6 °F93 %29.98 in2.5 miNNE (20°)11.2 mphSnowLight Snow
1:00 AM17.6 °F15.8 °F93 %29.95 in1.4 miENE (70°)24.6 mph35.8 mphSnowLight Snow
2:00 AM17.6 °F15.8 °F93 %29.95 in2.5 miNNE (30°)13.4 mph24.6 mphSnowLight Snow
3:00 AM17.6 °F14.0 °F86 %29.95 in2.5 miNNE (20°)15.7 mphSnowLight Snow
4:00 AM17.6 °F14.0 °F86 %29.95 in2.5 miNorth (10°)15.7 mphSnowLight Snow Showers
5:00 AM17.6 °F14.0 °F86 %29.92 in2.5 miNNW (330°)11.2 mphSnowLight Snow
6:00 AM10.0 °F7.0 °F83 %29.97 in1.0 miENE (60°)40.3 mphSnowLight Snow Showers
6:00 AM19.4 °F14.0 °F80 %29.92 in2.5 miNorth (360°)6.7 mphSnowLight Snow
7:00 AM17.6 °F14.0 °F86 %29.92 in0.6 miNorth (10°)11.2 mphSnowSnow Showers
8:00 AM15.8 °F12.2 °F86 %29.95 in1.4 miVariable4.5 mphSnowLight Snow Showers
8:30 AM12.2 °F8.6 °F85 %29.95 in1.7 miVariable4.5 mphSnowLight Snow
9:00 AM12.2 °F8.6 °F85 %29.95 in1.7 miWSW (240°)15.7 mphSnowLight Snow
9:30 AM12.2 °F8.6 °F85 %29.95 in6.2 miWest (280°)8.9 mphOvercast
10:00 AM12.2 °F8.6 °F85 %29.95 in6.2 miNW (320°)6.7 mphOvercast
10:30 AM10.4 °F6.8 °F85 %29.92 in6.2 miNNE (20°)11.2 mphOvercast
11:00 AM8.6 °F5.0 °F85 %29.92 in1.7 miNNE (20°)15.7 mph26.8 mphSnowLight Blowing Snow
11:30 AM8.6 °F5.0 °F85 %29.92 inNNE (20°)17.9 mph29.1 mphSnowLight Snow
12:00 PM8.6 °F5.0 °F85 %29.92 in0.3 miNNE (30°)24.6 mph35.8 mphSnowHeavy Blowing Snow
12:00 PM4.0 °F0.0 °F73 %29.96 in2.0 miENE (60°)31.3 mphSnowBlowing Snow
12:30 PM8.6 °F5.0 °F85 %29.92 in0.3 miNNE (30°)26.8 mph38.0 mphSnowHeavy Blowing Snow
1:00 PM8.6 °F5.0 °F85 %29.92 in0.9 miNNE (30°)26.8 mph38.0 mphSnowBlowing Snow
1:30 PM8.6 °F3.2 °F79 %29.89 in0.2 miNNE (30°)29.1 mph40.3 mphSnowHeavy Blowing Snow
2:00 PM8.6 °F3.2 °F79 %29.89 in1.2 miNNE (20°)22.4 mph33.6 mphSnowSnow
2:30 PM10.4 °F6.8 °F85 %29.89 in1.2 miNNE (30°)15.7 mph26.8 mphSnowSnow
3:00 PM10.4 °F6.8 °F85 %29.89 in1.1 miENE (70°)11.2 mph22.4 mphSnowSnow
3:30 PM8.6 °F3.2 °F79 %29.86 in0.7 miNNE (30°)13.4 mph24.6 mphSnowSnow
4:00 PM8.6 °F3.2 °F79 %29.86 in0.2 miNNE (30°)17.9 mph29.1 mphSnowHeavy Snow
4:30 PM8.6 °F5.0 °F85 %29.86 in0.4 miNNE (20°)20.1 mph31.3 mphSnowHeavy Snow
5:00 PM8.6 °F3.2 °F79 %29.89 in1.4 miENE (60°)17.9 mph29.1 mphSnowLight Snow
6:00 PM5.0 °F1.0 °F76 %29.91 in1.0 miENE (60°)35.8 mphSnowHeavy Snow Showers
6:00 PM10.4 °F3.2 °F73 %29.89 in1.4 miEast (80°)17.9 mph29.1 mphSnowLight Snow
7:00 PM6.8 °F-0.4 °F72 %29.89 in1.4 miENE (60°)17.9 mph29.1 mphSnowLight Snow
8:00 PM8.6 °F1.4 °F73 %29.89 in1.4 miEast (80°)11.2 mph22.4 mphSnowLight Snow
9:00 PM10.4 °F1.4 °F67 %29.89 in1.4 miNorth (360°)11.2 mphSnowLight Snow
10:00 PM10.4 °F1.4 °F67 %29.89 in1.4 miNE (40°)11.2 mphSnowLight Snow
11:00 PM10.4 °F3.2 °F73 %29.89 in1.4 miNNE (20°)6.7 mphSnowLight Snow
Hourly data recorded from UHMA, located miles away from Leninka, Russia







STORIES FROM OUR PARTNERS